Weather History for KAAO - January, 2014

Change the Weather History Date:

Saturday, January 18, 2014

  Actual Average (KICT) Record (KICT)
Temperature  
Mean Temperature 42 °F 32 °F  
Max Temperature 53 °F 43 °F 65 °F (1951)
Min Temperature 30 °F 22 °F -12 °F (1930)
Degree Days  
Heating Degree Days 22 33  
Month to date heating degree days 594  
Since 1 July heating degree days 2437  
Cooling Degree Days 0 0  
Month to date cooling degree days 0  
Year to date cooling degree days 0  
Moisture  
Dew Point 21 °F    
Average Humidity 47    
Maximum Humidity 69    
Minimum Humidity 31    
Precipitation  
Precipitation 0.00 in 0.03 in 0.87 in (1979)
Month to date precipitation 0.43  
Year to date precipitation 0.43  
Snow  
Snow 0.00 in 0.10 in 12.00 in (1962)
Month to date snowfall 1.9  
Since 1 July snowfall 7.5  
Snow Depth -    
Sea Level Pressure  
Sea Level Pressure 30.02 in    
Wind  
Wind Speed 16 mph (WNW)    
Max Wind Speed 34 mph    
Max Gust Speed 48 mph    
Visibility 10 miles    
Events      
T = Trace of Precipitation, MM = Missing Value Source: NWS Daily Summary

Daily Weather History Graph

Daily Weather History Graph

Search for Another Location

Airport or City:

Trip Planner

Search our weather history database for the weather conditions in past years. The results will help you decide how hot, cold, wet, or windy it might be!

Date:

Astronomy

Jan. 18, 2014 Rise Set
Actual Time 7:41 AM CST 5:37 PM CST
Civil Twilight 7:13 AM CST 6:05 PM CST
Nautical Twilight 6:41 AM CST 6:37 PM CST
Astronomical Twilight 6:09 AM CST 7:09 PM CST
Moon 8:16 PM CST (1/18) 8:45 AM CST (1/18)
Length of Visible Light 10h 52m
Length of Day
9h 55m
Waning Gibbous, 94% of the Moon is Illuminated
Jan 18
Waning Gibbous
Jan 23
Last Quarter
Jan 30
New
Feb 6
First Quarter
Feb 14
Full

Hourly Weather History & Observations

Time (CST) Temp. Windchill Dew Point Humidity Pressure Visibility Wind Dir Wind Speed Gust Speed Precip Events Conditions
12:54 AM 37.0 °F 27.7 °F 14.0 °F 39% 29.98 in 10.0 mi SSW 16.1 mph 21.9 mph N/A   Overcast
1:54 AM 35.1 °F 25.5 °F 15.1 °F 44% 29.96 in 10.0 mi SW 15.0 mph 25.3 mph N/A   Scattered Clouds
2:54 AM 34.0 °F 25.5 °F 17.1 °F 50% 29.94 in 10.0 mi SW 11.5 mph - N/A   Clear
3:54 AM 35.1 °F 26.4 °F 18.0 °F 50% 29.91 in 10.0 mi SW 12.7 mph - N/A   Clear
4:54 AM 34.0 °F 26.6 °F 19.0 °F 54% 29.91 in 10.0 mi WSW 9.2 mph - N/A   Clear
5:54 AM 34.0 °F 26.0 °F 19.9 °F 56% 29.90 in 10.0 mi West 10.4 mph - N/A   Clear
6:54 AM 37.9 °F 29.6 °F 21.9 °F 53% 29.90 in 10.0 mi West 13.8 mph - N/A   Clear
7:54 AM 37.9 °F 29.6 °F 21.0 °F 51% 29.91 in 10.0 mi WNW 13.8 mph - N/A   Clear
8:54 AM 41.0 °F 33.9 °F 21.9 °F 47% 29.94 in 10.0 mi WNW 12.7 mph - N/A   Clear
9:54 AM 48.0 °F - 25.0 °F 41% 29.95 in 10.0 mi WNW 16.1 mph 27.6 mph N/A   Clear
10:54 AM 53.1 °F - 25.0 °F 34% 29.97 in 10.0 mi NW 27.6 mph 35.7 mph N/A   Clear
11:54 AM 53.1 °F - 23.0 °F 31% 29.96 in 10.0 mi NNW 27.6 mph 43.7 mph N/A   Clear
12:54 PM 53.1 °F - 23.0 °F 31% 29.96 in 10.0 mi NNW 31.1 mph 48.3 mph N/A   Clear
1:54 PM 53.1 °F - 23.0 °F 31% 29.97 in 10.0 mi NNW 34.5 mph 44.9 mph N/A   Clear
2:54 PM 51.1 °F - 21.9 °F 32% 30.00 in 10.0 mi NW 27.6 mph 39.1 mph N/A   Scattered Clouds
3:54 PM 50.0 °F - 21.0 °F 32% 30.04 in 10.0 mi NW 28.8 mph 38.0 mph N/A   Partly Cloudy
4:54 PM 48.0 °F - 21.9 °F 36% 30.08 in 10.0 mi NW 20.7 mph 35.7 mph N/A   Partly Cloudy
5:54 PM 44.1 °F 36.2 °F 23.0 °F 43% 30.12 in 10.0 mi NNW 18.4 mph - N/A   Clear
6:54 PM 41.0 °F 33.9 °F 23.0 °F 49% 30.15 in 10.0 mi NNW 12.7 mph - N/A   Clear
7:54 PM 37.9 °F 30.0 °F 23.0 °F 55% 30.16 in 10.0 mi NNW 12.7 mph - N/A   Clear
8:54 PM 37.0 °F 29.3 °F 23.0 °F 57% 30.18 in 10.0 mi NNW 11.5 mph - N/A   Clear
9:54 PM 32.0 °F 25.6 °F 21.9 °F 66% 30.17 in 10.0 mi NNW 6.9 mph - N/A   Clear
10:54 PM 33.1 °F 26.9 °F 23.0 °F 66% 30.18 in 10.0 mi WNW 6.9 mph - N/A   Clear
11:54 PM 30.9 °F 24.3 °F 21.9 °F 69% 30.19 in 10.0 mi WNW 6.9 mph - N/A   Clear